Showing default

ARASE (ERG), 41896

Orbit data source: Space-Track

ARASE (ERG), 41896 is a payload satellite owned by ISAS/JAXA (JP) in HEO that was launched on Tue, 20 Dec 2016 UTC via an EPSILON launch vehicle from the Kagoshima Space Center University Of Tokyo (KSCUT). Payload-class satellites include a variety of spacecraft equipped with specific instruments for various scientific and technological missions. These include communications satellites like Starlink; space stations such as the ISS; scientific satellites like the Hubble; Earth observation satellites from companies like Planet Labs, Umbra, and HawkEye 360; GPS; miniature CubeSats for education and research; and military/defense satellites.

Loading next visibility...
Identifier
41896, 2016-080A
Orbit
HEO
Country
Flag of JPJP / JPN
Related business
Manufacturer
ISAS/JAXA
Mission
Operational Civil Science
Bus & Motor
SPRINT-B, Unknown motor
Mass
350 kg wet, 350 kg dry
Launch date (UTC)
2016-12-20 (9 years ago)
Launch vehicle
EPSILON
Launch site
Kagoshima Space Center University Of Tokyo (KSCUT)
Object type
Payload
Rocket body
Debris
Shape & HBR
Box + 4 Pan + 6 Ant, Unknown HBR
Radar Cross Section
33.836 m², Large (>1 m²)

Expand to show TLE details & history
Last TLE update: 1 day ago

TLE from 1 day ago
0 ARASE (ERG)
1 41896U 16080A   25260.64443825 -.00000212  00000-0  53623-3 0  9992
2 41896  31.4768 116.8823 6975165 240.8058  33.6218  2.57146242 81267
Epoch: 2025-09-17T15:27Z
TLE epoch observation values (Epoch: 2025-09-17T15:27:59.464Z)
Latitude
-0.00014°
Longitude
-111.84208°
Altitude
11,144.444 km
Speed
5.271 km/s
True Right ascension
07h 47m 53s
True Declination
0° 00' 01"
Sunlit
Object was in daylight at epoch
Visualization orbit readout
Latitude
Unknown
Longitude
Unknown
Altitude
Unknown
Speed
Unknown
Apparent Right ascension
Unknown
Apparent Declination
Unknown
Sunlit
N/A
Visualization observer readout
Local Sidereal Time
16:47:34
Azimuth
Unknown
Elevation
Unknown
Doppler factor
Unknown
Orbital elements
Apogee altitude
31,830.07 km
Perigee altitude
430.252 km
Semi-major axis
22,508.298 km
Eccentricity
0.69752
Inclination
31.4768°
RAAN
116.8823°
Arg. of periapsis
240.8058°
True anomaly
119.25282°
Mean anomaly
33.6218°
Eccentric anomaly
71.52737°
Mean motion
0.64273 °/min
Orbital period
560.11 mins
BSTAR
0.00053623
Loading maneuver chart data...
Computing Atmospheric mass density...
Loading historical data...
Loading historical data...
Loading historical data...
Loading historical data...
Loading historical data...
Loading historical data...
Loading historical data...
Other satellites on launch #80 in the year 2016 (2016-12-20 UTC)

Documentation

Showing up to 5 results
|